Time,TemperatureF,DewpointF,PressureIn,WindDirection,WindDirectionDegrees,WindSpeedMPH,WindSpeedGustMPH,Humidity,HourlyPrecipIn,Conditions,Clouds,dailyrainin,SoftwareType,DateUTC
2013-04-06 00:03:00,56.7,16.0,29.61,NE,45,0.0,0.0,20,0.00,CLR,,0.00,WeatherDisplay:10.37,2013-04-06 06:03:00,
2013-04-06 00:08:00,56.3,16.8,29.61,NE,45,0.2,0.2,21,0.00,CLR,,0.00,WeatherDisplay:10.37,2013-04-06 06:08:00,
2013-04-06 00:13:00,55.9,16.5,29.61,ENE,68,0.2,0.2,21,0.00,CLR,,0.00,WeatherDisplay:10.37,2013-04-06 06:13:00,
2013-04-06 00:18:00,55.6,17.3,29.61,ENE,68,0.0,0.0,22,0.00,CLR,,0.00,WeatherDisplay:10.37,2013-04-06 06:18:00,
2013-04-06 00:23:00,55.4,17.1,29.61,ESE,112,0.2,0.2,22,0.00,CLR,,0.00,WeatherDisplay:10.37,2013-04-06 06:23:00,
2013-04-06 00:28:00,55.0,16.8,29.62,ENE,68,0.5,0.5,22,0.00,CLR,,0.00,WeatherDisplay:10.37,2013-04-06 06:28:00,
2013-04-06 00:33:00,54.9,17.7,29.62,ENE,68,1.2,1.2,23,0.00,CLR,,0.00,WeatherDisplay:10.37,2013-04-06 06:33:00,
2013-04-06 00:38:00,54.9,17.7,29.62,East,90,0.0,0.0,23,0.00,CLR,,0.00,WeatherDisplay:10.37,2013-04-06 06:38:00,
2013-04-06 00:43:00,54.9,18.7,29.62,SW,225,2.3,2.3,24,0.00,CLR,,0.00,WeatherDisplay:10.37,2013-04-06 06:43:00,
2013-04-06 00:48:00,55.0,17.9,29.62,SW,225,2.3,2.3,23,0.00,CLR,,0.00,WeatherDisplay:10.37,2013-04-06 06:48:00,
2013-04-06 00:53:00,55.0,17.9,29.62,SE,135,0.5,0.5,23,0.00,CLR,,0.00,WeatherDisplay:10.37,2013-04-06 06:53:00,
2013-04-06 00:58:00,55.0,17.9,29.62,SE,135,1.2,1.2,23,0.00,CLR,,0.00,WeatherDisplay:10.37,2013-04-06 06:58:00,
2013-04-06 01:03:00,55.0,17.9,29.62,ESE,112,0.5,0.5,23,0.00,CLR,,0.00,WeatherDisplay:10.37,2013-04-06 07:03:00,
2013-04-06 01:08:00,54.9,17.7,29.62,ESE,112,1.2,1.2,23,0.00,CLR,,0.00,WeatherDisplay:10.37,2013-04-06 07:08:00,
2013-04-06 01:13:00,54.5,17.4,29.62,ESE,112,0.5,0.5,23,0.00,CLR,,0.00,WeatherDisplay:10.37,2013-04-06 07:13:00,
2013-04-06 01:18:00,54.3,17.3,29.63,ESE,112,2.4,2.4,23,0.00,CLR,,0.00,WeatherDisplay:10.37,2013-04-06 07:18:00,
2013-04-06 01:23:00,54.3,17.3,29.63,ESE,112,1.2,1.2,23,0.00,CLR,,0.00,WeatherDisplay:10.37,2013-04-06 07:23:00,
2013-04-06 01:28:00,54.3,17.3,29.63,ESE,112,2.3,2.3,23,0.00,CLR,,0.00,WeatherDisplay:10.37,2013-04-06 07:28:00,
2013-04-06 01:33:00,54.3,18.2,29.63,East,90,1.6,1.6,24,0.00,CLR,,0.00,WeatherDisplay:10.37,2013-04-06 07:33:00,
2013-04-06 01:38:00,54.3,18.2,29.63,SE,135,2.9,2.9,24,0.00,CLR,,0.00,WeatherDisplay:10.37,2013-04-06 07:38:00,
2013-04-06 01:43:00,54.5,18.4,29.63,ESE,112,1.6,1.6,24,0.00,CLR,,0.00,WeatherDisplay:10.37,2013-04-06 07:43:00,
2013-04-06 01:49:00,54.3,18.2,29.63,SSW,202,0.0,0.0,24,0.00,CLR,,0.00,WeatherDisplay:10.37,2013-04-06 07:49:00,
2013-04-06 01:54:00,54.3,18.2,29.62,SE,135,1.2,1.2,24,0.00,CLR,,0.00,WeatherDisplay:10.37,2013-04-06 07:54:00,
2013-04-06 01:59:00,54.1,19.0,29.62,East,90,0.0,0.7,25,0.00,CLR,,0.00,WeatherDisplay:10.37,2013-04-06 07:59:00,
2013-04-06 02:04:00,54.3,21.0,29.62,NNW,338,2.3,0.0,27,0.00,CLR,,0.00,WeatherDisplay:10.37,2013-04-06 08:04:00,
2013-04-06 02:09:00,54.7,20.4,29.62,WNW,292,1.2,0.0,26,0.00,CLR,,0.00,WeatherDisplay:10.37,2013-04-06 08:09:00,
2013-04-06 02:14:00,54.7,21.3,29.62,WNW,292,2.3,2.3,27,0.00,CLR,,0.00,WeatherDisplay:10.37,2013-04-06 08:14:00,
2013-04-06 02:19:00,54.7,20.4,29.62,North,0,0.0,0.0,26,0.00,CLR,,0.00,WeatherDisplay:10.37,2013-04-06 08:19:00,
2013-04-06 02:24:00,54.7,19.5,29.62,ESE,112,1.2,1.2,25,0.00,CLR,,0.00,WeatherDisplay:10.37,2013-04-06 08:24:00,
2013-04-06 02:29:00,54.3,21.0,29.62,NNE,22,1.2,1.2,27,0.00,CLR,,0.00,WeatherDisplay:10.37,2013-04-06 08:29:00,
2013-04-06 02:34:00,54.0,20.7,29.62,NE,45,0.0,0.0,27,0.00,CLR,,0.00,WeatherDisplay:10.37,2013-04-06 08:34:00,
2013-04-06 02:39:00,53.6,21.2,29.62,NNW,338,1.2,1.2,28,0.00,CLR,,0.00,WeatherDisplay:10.37,2013-04-06 08:39:00,
2013-04-06 02:44:00,53.2,20.1,29.62,NNW,338,0.0,0.5,27,0.00,CLR,,0.00,WeatherDisplay:10.37,2013-04-06 08:44:00,
2013-04-06 02:49:00,53.1,19.9,29.62,ESE,112,0.0,0.0,27,0.00,CLR,,0.00,WeatherDisplay:10.37,2013-04-06 08:49:00,
2013-04-06 02:54:00,52.9,19.8,29.62,NE,45,0.0,0.0,27,0.00,CLR,,0.00,WeatherDisplay:10.37,2013-04-06 08:54:00,
2013-04-06 02:59:00,52.5,20.3,29.62,ENE,68,1.2,1.2,28,0.00,CLR,,0.00,WeatherDisplay:10.37,2013-04-06 08:59:00,
2013-04-06 03:04:00,52.3,20.2,29.62,North,0,0.2,0.2,28,0.00,CLR,,0.00,WeatherDisplay:10.37,2013-04-06 09:04:00,
2013-04-06 03:09:00,52.2,20.0,29.62,NNW,338,0.0,0.0,28,0.00,CLR,,0.00,WeatherDisplay:10.37,2013-04-06 09:09:00,
2013-04-06 03:14:00,52.2,20.0,29.61,NW,315,0.0,0.0,28,0.00,CLR,,0.00,WeatherDisplay:10.37,2013-04-06 09:14:00,
2013-04-06 03:19:00,52.0,19.8,29.62,North,0,1.2,1.2,28,0.00,CLR,,0.00,WeatherDisplay:10.37,2013-04-06 09:19:00,
2013-04-06 03:24:00,51.8,19.7,29.62,North,0,0.0,0.0,28,0.00,CLR,,0.00,WeatherDisplay:10.37,2013-04-06 09:24:00,
2013-04-06 03:29:00,51.6,19.5,29.62,NNE,22,0.0,0.0,28,0.00,CLR,,0.00,WeatherDisplay:10.37,2013-04-06 09:29:00,
2013-04-06 03:34:00,51.4,20.2,29.61,NNE,22,0.2,0.2,29,0.00,CLR,,0.00,WeatherDisplay:10.37,2013-04-06 09:34:00,
2013-04-06 03:40:00,51.4,20.2,29.61,North,9,0.0,0.0,29,0.00,CLR,,0.00,WeatherDisplay:10.37,2013-04-06 09:40:00,
2013-04-06 03:45:00,51.1,19.9,29.61,ENE,68,0.0,0.0,29,0.00,CLR,,0.00,WeatherDisplay:10.37,2013-04-06 09:45:00,
2013-04-06 03:50:00,50.7,19.6,29.62,ENE,68,0.0,0.0,29,0.00,CLR,,0.00,WeatherDisplay:10.37,2013-04-06 09:50:00,
2013-04-06 03:55:00,50.5,19.4,29.62,East,90,1.8,1.8,29,0.00,CLR,,0.00,WeatherDisplay:10.37,2013-04-06 09:55:00,
2013-04-06 04:00:00,50.4,20.1,29.62,SSW,202,3.5,3.5,30,0.00,CLR,,0.00,WeatherDisplay:10.37,2013-04-06 10:00:00,
2013-04-06 04:05:00,50.4,20.1,29.62,ESE,112,1.2,1.2,30,0.00,CLR,,0.00,WeatherDisplay:10.37,2013-04-06 10:05:00,
2013-04-06 04:10:00,50.4,20.8,29.62,ESE,112,0.2,0.2,31,0.00,CLR,,0.00,WeatherDisplay:10.37,2013-04-06 10:10:00,
2013-04-06 04:15:00,50.4,20.8,29.62,NNE,22,0.0,0.0,31,0.00,CLR,,0.00,WeatherDisplay:10.37,2013-04-06 10:15:00,
2013-04-06 04:20:00,50.2,21.4,29.62,NNW,338,0.0,0.0,32,0.00,CLR,,0.00,WeatherDisplay:10.37,2013-04-06 10:20:00,
2013-04-06 04:25:00,50.0,20.5,29.62,North,0,0.0,0.0,31,0.00,CLR,,0.00,WeatherDisplay:10.37,2013-04-06 10:25:00,
2013-04-06 04:30:00,49.8,20.4,29.62,ENE,68,1.2,1.2,31,0.00,CLR,,0.00,WeatherDisplay:10.37,2013-04-06 10:30:00,
2013-04-06 04:35:00,49.6,21.7,29.62,NE,45,0.0,0.0,33,0.00,CLR,,0.00,WeatherDisplay:10.37,2013-04-06 10:35:00,
2013-04-06 04:40:00,49.5,20.8,29.62,ENE,68,0.0,0.0,32,0.00,CLR,,0.00,WeatherDisplay:10.37,2013-04-06 10:40:00,
2013-04-06 04:45:00,49.3,21.4,29.62,NNE,22,0.0,0.0,33,0.00,CLR,,0.00,WeatherDisplay:10.37,2013-04-06 10:45:00,
2013-04-06 04:50:00,49.1,21.2,29.62,East,90,0.0,0.0,33,0.00,CLR,,0.00,WeatherDisplay:10.37,2013-04-06 10:50:00,
2013-04-06 04:55:00,48.7,20.2,29.63,East,90,0.0,0.0,32,0.00,CLR,,0.00,WeatherDisplay:10.37,2013-04-06 10:55:00,
2013-04-06 05:00:00,48.6,20.7,29.63,East,90,1.2,0.0,33,0.00,CLR,,0.00,WeatherDisplay:10.37,2013-04-06 11:00:00,
2013-04-06 05:05:00,48.4,20.6,29.62,ESE,112,0.5,0.5,33,0.00,CLR,,0.00,WeatherDisplay:10.37,2013-04-06 11:05:00,
2013-04-06 05:10:00,48.2,21.1,29.62,SW,225,0.5,0.5,34,0.00,CLR,,0.00,WeatherDisplay:10.37,2013-04-06 11:10:00,
2013-04-06 05:15:00,48.2,21.1,29.62,SW,225,0.0,0.0,34,0.00,CLR,,0.00,WeatherDisplay:10.37,2013-04-06 11:15:00,
2013-04-06 05:21:00,48.0,20.9,29.62,SSW,202,0.0,0.0,34,0.00,CLR,,0.00,WeatherDisplay:10.37,2013-04-06 11:21:00,
2013-04-06 05:26:00,47.8,20.8,29.62,NNE,22,1.2,1.2,34,0.00,CLR,,0.00,WeatherDisplay:10.37,2013-04-06 11:26:00,
2013-04-06 05:31:00,48.0,22.3,29.62,NE,45,1.2,1.2,36,0.00,CLR,,0.00,WeatherDisplay:10.37,2013-04-06 11:31:00,
2013-04-06 05:33:00,48.0,22.3,29.62,NE,45,1.2,1.2,36,0.00,CLR,,0.00,WeatherDisplay:10.37,2013-04-06 11:33:00,
2013-04-06 05:38:00,48.2,22.5,29.62,NE,45,1.2,0.0,36,0.00,CLR,,0.00,WeatherDisplay:10.37,2013-04-06 11:38:00,
2013-04-06 05:43:00,48.2,22.5,29.63,ESE,112,0.0,0.0,36,0.00,CLR,,0.00,WeatherDisplay:10.37,2013-04-06 11:43:00,
2013-04-06 05:48:00,47.8,22.1,29.63,ESE,112,0.0,0.0,36,0.00,CLR,,0.00,WeatherDisplay:10.37,2013-04-06 11:48:00,
2013-04-06 05:53:00,47.7,22.0,29.63,East,90,1.2,1.2,36,0.00,CLR,,0.00,WeatherDisplay:10.37,2013-04-06 11:53:00,
2013-04-06 05:58:00,47.5,21.8,29.63,East,90,0.5,0.5,36,0.00,CLR,,0.00,WeatherDisplay:10.37,2013-04-06 11:58:00,
2013-04-06 06:03:00,47.3,21.7,29.63,East,90,0.0,0.0,36,0.00,CLR,,0.00,WeatherDisplay:10.37,2013-04-06 12:03:00,
2013-04-06 06:08:00,47.1,21.5,29.63,East,90,0.0,0.0,36,0.00,CLR,,0.00,WeatherDisplay:10.37,2013-04-06 12:08:00,
2013-04-06 06:13:00,47.1,21.5,29.63,East,90,1.2,1.2,36,0.00,CLR,,0.00,WeatherDisplay:10.37,2013-04-06 12:13:00,
2013-04-06 06:18:00,46.9,20.7,29.63,East,90,1.4,1.4,35,0.00,CLR,,0.00,WeatherDisplay:10.37,2013-04-06 12:18:00,
2013-04-06 06:23:00,46.8,21.2,29.64,East,90,1.2,1.2,36,0.00,CLR,,0.00,WeatherDisplay:10.37,2013-04-06 12:23:00,
2013-04-06 06:28:00,46.8,21.2,29.64,East,90,0.0,0.0,36,0.00,CLR,,0.00,WeatherDisplay:10.37,2013-04-06 12:28:00,
2013-04-06 06:33:00,46.8,21.2,29.64,East,90,0.0,0.5,36,0.00,CLR,,0.00,WeatherDisplay:10.37,2013-04-06 12:33:00,
2013-04-06 06:38:00,46.8,21.2,29.64,ENE,68,0.7,0.7,36,0.00,CLR,,0.00,WeatherDisplay:10.37,2013-04-06 12:38:00,
2013-04-06 06:44:00,46.8,21.8,29.64,NE,45,0.0,0.0,37,0.00,CLR,,0.00,WeatherDisplay:10.37,2013-04-06 12:44:00,
2013-04-06 06:49:00,46.8,22.5,29.64,NE,45,0.0,0.0,38,0.00,CLR,,0.00,WeatherDisplay:10.37,2013-04-06 12:49:00,
2013-04-06 06:54:00,46.9,22.0,29.64,East,90,1.2,1.2,37,0.00,CLR,,0.00,WeatherDisplay:10.37,2013-04-06 12:54:00,
2013-04-06 06:59:00,46.9,22.0,29.65,East,90,0.0,0.0,37,0.00,CLR,,0.00,WeatherDisplay:10.37,2013-04-06 12:59:00,
2013-04-06 07:04:00,46.8,21.8,29.65,East,90,0.0,0.0,37,0.00,CLR,,0.00,WeatherDisplay:10.37,2013-04-06 13:04:00,
2013-04-06 07:09:00,46.6,21.7,29.65,East,90,0.0,0.0,37,0.00,CLR,,0.00,WeatherDisplay:10.37,2013-04-06 13:09:00,
2013-04-06 07:15:00,46.6,21.7,29.65,East,90,0.0,0.0,37,0.00,CLR,,0.00,WeatherDisplay:10.37,2013-04-06 13:15:00,
2013-04-06 07:19:00,46.4,21.5,29.66,East,90,0.5,0.5,37,0.00,CLR,,0.00,WeatherDisplay:10.37,2013-04-06 13:19:00,
2013-04-06 07:24:00,46.4,21.5,29.66,East,90,0.2,0.2,37,0.00,CLR,,0.00,WeatherDisplay:10.37,2013-04-06 13:24:00,
2013-04-06 07:30:00,46.6,22.3,29.66,ENE,68,0.0,0.0,38,0.00,CLR,,0.00,WeatherDisplay:10.37,2013-04-06 13:30:00,
2013-04-06 07:35:00,46.6,22.3,29.66,ENE,68,0.2,0.2,38,0.00,CLR,,0.00,WeatherDisplay:10.37,2013-04-06 13:35:00,
2013-04-06 07:40:00,46.8,23.1,29.66,ENE,68,0.0,0.0,39,0.00,CLR,,0.00,WeatherDisplay:10.37,2013-04-06 13:40:00,
2013-04-06 07:45:00,46.9,23.2,29.66,East,90,0.0,0.0,39,0.00,CLR,,0.00,WeatherDisplay:10.37,2013-04-06 13:45:00,
2013-04-06 07:50:00,46.9,22.6,29.66,ESE,112,0.0,0.0,38,0.00,CLR,,0.00,WeatherDisplay:10.37,2013-04-06 13:50:00,
2013-04-06 07:55:00,47.1,23.4,29.66,ENE,68,1.2,0.0,39,0.00,CLR,,0.00,WeatherDisplay:10.37,2013-04-06 13:55:00,
2013-04-06 08:00:00,47.3,24.2,29.66,ENE,68,0.2,0.2,40,0.00,CLR,,0.00,WeatherDisplay:10.37,2013-04-06 14:00:00,
2013-04-06 08:05:00,47.7,24.5,29.66,North,0,0.0,0.0,40,0.00,CLR,,0.00,WeatherDisplay:10.37,2013-04-06 14:05:00,
2013-04-06 08:10:00,48.0,24.8,29.66,ESE,112,1.2,1.2,40,0.00,CLR,,0.00,WeatherDisplay:10.37,2013-04-06 14:10:00,
2013-04-06 08:15:00,48.4,25.1,29.66,East,90,1.2,1.2,40,0.00,CLR,,0.00,WeatherDisplay:10.37,2013-04-06 14:15:00,
2013-04-06 08:20:00,48.9,25.0,29.66,NE,45,1.2,1.2,39,0.00,CLR,,0.00,WeatherDisplay:10.37,2013-04-06 14:20:00,
2013-04-06 08:25:00,49.5,25.5,29.66,ESE,112,1.2,1.2,39,0.00,CLR,,0.00,WeatherDisplay:10.37,2013-04-06 14:25:00,
2013-04-06 08:30:00,50.0,26.0,29.66,SE,135,1.2,1.6,39,0.00,CLR,,0.00,WeatherDisplay:10.37,2013-04-06 14:30:00,
2013-04-06 08:35:00,50.5,25.8,29.66,South,180,1.2,1.2,38,0.00,CLR,,0.00,WeatherDisplay:10.37,2013-04-06 14:35:00,
2013-04-06 08:40:00,51.4,26.6,29.66,ESE,112,1.2,1.2,38,0.00,CLR,,0.00,WeatherDisplay:10.37,2013-04-06 14:40:00,
2013-04-06 08:45:00,52.0,27.1,29.67,South,180,1.4,1.4,38,0.00,CLR,,0.00,WeatherDisplay:10.37,2013-04-06 14:45:00,
2013-04-06 08:50:00,52.3,26.8,29.66,SSE,158,2.3,2.3,37,0.00,CLR,,0.00,WeatherDisplay:10.37,2013-04-06 14:50:00,
2013-04-06 08:55:00,52.9,27.3,29.67,SSE,158,2.3,2.3,37,0.00,CLR,,0.00,WeatherDisplay:10.37,2013-04-06 14:55:00,
2013-04-06 09:00:00,53.4,27.8,29.67,South,180,2.2,2.2,37,0.00,CLR,,0.00,WeatherDisplay:10.37,2013-04-06 15:00:00,
2013-04-06 09:05:00,54.0,27.6,29.66,SSE,158,0.9,0.9,36,0.00,CLR,,0.00,WeatherDisplay:10.37,2013-04-06 15:05:00,
2013-04-06 09:10:00,54.3,27.9,29.67,SE,135,1.2,1.2,36,0.00,CLR,,0.00,WeatherDisplay:10.37,2013-04-06 15:10:00,
2013-04-06 09:15:00,54.7,26.8,29.67,SW,225,0.0,0.0,34,0.00,CLR,,0.00,WeatherDisplay:10.37,2013-04-06 15:15:00,
2013-04-06 09:20:00,55.4,26.7,29.67,SW,225,0.0,0.0,33,0.00,CLR,,0.00,WeatherDisplay:10.37,2013-04-06 15:20:00,
2013-04-06 09:25:00,55.9,27.2,29.67,SSW,202,0.7,0.7,33,0.00,CLR,,0.00,WeatherDisplay:10.37,2013-04-06 15:25:00,
2013-04-06 09:30:00,56.5,27.7,29.67,WSW,248,2.3,2.3,33,0.00,CLR,,0.00,WeatherDisplay:10.37,2013-04-06 15:30:00,
2013-04-06 09:35:00,57.2,27.6,29.67,South,180,2.3,2.3,32,0.00,CLR,,0.00,WeatherDisplay:10.37,2013-04-06 15:35:00,
2013-04-06 09:40:00,57.7,27.3,29.67,ESE,112,1.2,1.2,31,0.00,CLR,,0.00,WeatherDisplay:10.37,2013-04-06 15:40:00,
2013-04-06 09:46:00,58.3,26.9,29.67,SW,225,1.4,1.4,30,0.00,CLR,,0.00,WeatherDisplay:10.37,2013-04-06 15:46:00,
2013-04-06 09:51:00,59.4,27.9,29.67,SSW,202,3.5,3.5,30,0.00,CLR,,0.00,WeatherDisplay:10.37,2013-04-06 15:51:00,
2013-04-06 09:57:00,60.1,27.7,29.67,SW,225,2.3,2.3,29,0.00,CLR,,0.00,WeatherDisplay:10.37,2013-04-06 15:57:00,
2013-04-06 10:02:00,60.1,27.7,29.67,South,180,2.3,2.3,29,0.00,CLR,,0.00,WeatherDisplay:10.37,2013-04-06 16:02:00,
2013-04-06 10:07:00,60.3,27.8,29.68,SE,135,1.4,1.4,29,0.00,CLR,,0.00,WeatherDisplay:10.37,2013-04-06 16:07:00,
2013-04-06 10:12:00,60.4,27.1,29.68,West,270,1.2,1.2,28,0.00,CLR,,0.00,WeatherDisplay:10.37,2013-04-06 16:12:00,
2013-04-06 10:17:00,60.8,28.3,29.68,SSW,202,2.9,2.9,29,0.00,CLR,,0.00,WeatherDisplay:10.37,2013-04-06 16:17:00,
2013-04-06 10:22:00,61.7,29.1,29.68,SSW,202,1.2,3.3,29,0.00,CLR,,0.00,WeatherDisplay:10.37,2013-04-06 16:22:00,
2013-04-06 10:27:00,62.4,28.9,29.68,SSE,158,1.2,1.2,28,0.00,CLR,,0.00,WeatherDisplay:10.37,2013-04-06 16:27:00,
2013-04-06 10:32:00,62.8,28.3,29.68,SW,225,2.3,2.3,27,0.00,CLR,,0.00,WeatherDisplay:10.37,2013-04-06 16:32:00,
2013-04-06 10:37:00,63.0,28.4,29.68,WSW,248,3.8,3.8,27,0.00,CLR,,0.00,WeatherDisplay:10.37,2013-04-06 16:37:00,
2013-04-06 10:42:00,63.0,28.4,29.68,WSW,248,2.3,2.3,27,0.00,CLR,,0.00,WeatherDisplay:10.37,2013-04-06 16:42:00,
2013-04-06 10:47:00,62.8,26.4,29.68,SSW,202,0.0,0.0,25,0.00,CLR,,0.00,WeatherDisplay:10.37,2013-04-06 16:47:00,
2013-04-06 10:52:00,63.0,27.5,29.68,NE,45,1.2,1.2,26,0.00,CLR,,0.00,WeatherDisplay:10.37,2013-04-06 16:52:00,
2013-04-06 10:58:00,63.5,28.9,29.68,SSE,158,2.4,2.4,27,0.00,CLR,,0.00,WeatherDisplay:10.37,2013-04-06 16:58:00,
2013-04-06 11:03:00,63.9,27.3,29.68,ENE,68,1.2,1.2,25,0.00,CLR,,0.00,WeatherDisplay:10.37,2013-04-06 17:03:00,
2013-04-06 11:08:00,63.9,27.3,29.68,SE,135,0.0,0.0,25,0.00,CLR,,0.00,WeatherDisplay:10.37,2013-04-06 17:08:00,
2013-04-06 11:13:00,64.2,27.6,29.68,West,270,0.5,0.5,25,0.00,CLR,,0.00,WeatherDisplay:10.37,2013-04-06 17:13:00,
2013-04-06 11:18:00,64.8,29.0,29.68,SW,225,2.4,2.4,26,0.00,CLR,,0.00,WeatherDisplay:10.37,2013-04-06 17:18:00,
2013-04-06 11:23:00,65.5,28.7,29.68,North,0,3.5,3.5,25,0.00,CLR,,0.00,WeatherDisplay:10.37,2013-04-06 17:23:00,
2013-04-06 11:28:00,65.8,29.0,29.68,West,270,1.2,1.2,25,0.00,CLR,,0.00,WeatherDisplay:10.37,2013-04-06 17:28:00,
2013-04-06 11:33:00,65.5,28.7,29.68,ESE,112,2.3,2.3,25,0.00,CLR,,0.00,WeatherDisplay:10.37,2013-04-06 17:33:00,
2013-04-06 11:38:00,66.6,28.6,29.68,ENE,68,1.6,1.6,24,0.00,CLR,,0.00,WeatherDisplay:10.37,2013-04-06 17:38:00,
2013-04-06 11:43:00,66.6,28.6,29.68,North,0,1.2,1.2,24,0.00,CLR,,0.00,WeatherDisplay:10.37,2013-04-06 17:43:00,
2013-04-06 11:48:00,68.0,30.8,29.68,ESE,112,3.5,3.5,25,0.00,CLR,,0.00,WeatherDisplay:10.37,2013-04-06 17:48:00,
2013-04-06 11:53:00,70.2,31.7,29.68,East,90,4.6,4.6,24,0.00,CLR,,0.00,WeatherDisplay:10.37,2013-04-06 17:53:00,
2013-04-06 11:58:00,70.9,32.3,29.67,SE,135,4.6,4.6,24,0.00,CLR,,0.00,WeatherDisplay:10.37,2013-04-06 17:58:00,
2013-04-06 12:03:00,71.6,30.7,29.67,SW,225,2.3,2.4,22,0.00,CLR,,0.00,WeatherDisplay:10.37,2013-04-06 18:03:00,
2013-04-06 12:08:00,70.7,28.8,29.67,SSE,158,3.5,3.5,21,0.00,CLR,,0.00,WeatherDisplay:10.37,2013-04-06 18:08:00,
2013-04-06 12:13:00,69.8,28.1,29.67,NW,315,3.5,3.5,21,0.00,CLR,,0.00,WeatherDisplay:10.37,2013-04-06 18:13:00,
2013-04-06 12:18:00,68.7,28.3,29.66,NNE,22,3.5,3.5,22,0.00,CLR,,0.00,WeatherDisplay:10.37,2013-04-06 18:18:00,
2013-04-06 12:23:00,69.4,28.9,29.66,ENE,68,2.3,2.3,22,0.00,CLR,,0.00,WeatherDisplay:10.37,2013-04-06 18:23:00,
2013-04-06 12:29:00,70.7,30.0,29.66,SW,225,2.3,2.3,22,0.00,CLR,,0.00,WeatherDisplay:10.37,2013-04-06 18:29:00,
2013-04-06 12:34:00,72.3,27.7,29.66,WSW,248,3.5,3.5,19,0.00,CLR,,0.00,WeatherDisplay:10.37,2013-04-06 18:34:00,
2013-04-06 12:39:00,71.6,27.1,29.66,North,0,4.6,4.6,19,0.00,CLR,,0.00,WeatherDisplay:10.37,2013-04-06 18:39:00,
2013-04-06 12:44:00,71.2,26.8,29.66,WNW,292,2.3,2.3,19,0.00,CLR,,0.00,WeatherDisplay:10.37,2013-04-06 18:44:00,
2013-04-06 12:49:00,71.1,26.7,29.66,ENE,68,1.2,1.2,19,0.00,CLR,,0.00,WeatherDisplay:10.37,2013-04-06 18:49:00,
2013-04-06 12:54:00,71.8,29.7,29.65,South,180,4.6,4.6,21,0.00,CLR,,0.00,WeatherDisplay:10.37,2013-04-06 18:54:00,
2013-04-06 12:59:00,73.0,30.8,29.65,SSE,158,4.6,4.6,21,0.00,CLR,,0.00,WeatherDisplay:10.37,2013-04-06 18:59:00,
2013-04-06 13:04:00,73.9,29.0,29.65,NNW,338,0.5,0.5,19,0.00,CLR,,0.00,WeatherDisplay:10.37,2013-04-06 19:04:00,
2013-04-06 13:09:00,75.9,30.7,29.65,SW,225,3.3,3.3,19,0.00,CLR,,0.00,WeatherDisplay:10.37,2013-04-06 19:09:00,
2013-04-06 13:14:00,76.3,29.6,29.64,South,180,3.5,3.5,18,0.00,CLR,,0.00,WeatherDisplay:10.37,2013-04-06 19:14:00,
2013-04-06 13:19:00,76.5,28.4,29.64,NW,315,2.6,2.6,17,0.00,CLR,,0.00,WeatherDisplay:10.37,2013-04-06 19:19:00,
2013-04-06 13:24:00,75.2,27.4,29.64,East,90,3.5,3.5,17,0.00,CLR,,0.00,WeatherDisplay:10.37,2013-04-06 19:24:00,
2013-04-06 13:29:00,75.6,29.0,29.64,SSE,158,2.9,2.9,18,0.00,CLR,,0.00,WeatherDisplay:10.37,2013-04-06 19:29:00,
2013-04-06 13:34:00,76.1,29.5,29.63,SSE,158,4.6,4.6,18,0.00,CLR,,0.00,WeatherDisplay:10.37,2013-04-06 19:34:00,
2013-04-06 13:39:00,77.0,30.2,29.63,NE,45,4.6,4.6,18,0.00,CLR,,0.00,WeatherDisplay:10.37,2013-04-06 19:39:00,
2013-04-06 13:44:00,77.9,29.5,29.63,SSE,158,3.5,3.5,17,0.00,CLR,,0.00,WeatherDisplay:10.37,2013-04-06 19:44:00,
2013-04-06 13:50:00,78.9,28.9,29.63,South,173,2.0,3.0,16,0.00,CLR,,0.00,WeatherDisplay:10.37,2013-04-06 19:50:00,
2013-04-06 13:55:00,77.8,28.0,29.62,WSW,239,1.0,5.0,16,0.00,CLR,,0.00,WeatherDisplay:10.37,2013-04-06 19:55:00,
2013-04-06 14:00:00,77.8,28.0,29.62,South,184,2.0,3.0,16,0.00,CLR,,0.00,WeatherDisplay:10.37,2013-04-06 20:00:00,
2013-04-06 14:05:00,78.1,28.2,29.62,SW,225,4.6,4.6,16,0.00,CLR,,0.00,WeatherDisplay:10.37,2013-04-06 20:05:00,
2013-04-06 14:10:00,77.0,27.3,29.62,WSW,239,3.0,8.0,16,0.00,CLR,,0.00,WeatherDisplay:10.37,2013-04-06 20:10:00,
2013-04-06 14:15:00,76.0,26.6,29.61,WSW,257,2.0,5.0,16,0.00,CLR,,0.00,WeatherDisplay:10.37,2013-04-06 20:15:00,
2013-04-06 14:20:00,76.1,28.1,29.62,SW,225,5.8,5.8,17,0.00,CLR,,0.00,WeatherDisplay:10.37,2013-04-06 20:20:00,
2013-04-06 14:25:00,77.3,29.1,29.61,SW,223,3.0,6.0,17,0.00,CLR,,0.00,WeatherDisplay:10.37,2013-04-06 20:25:00,
2013-04-06 14:30:00,77.9,28.1,29.61,North,0,1.2,1.2,16,0.00,CLR,,0.00,WeatherDisplay:10.37,2013-04-06 20:30:00,
2013-04-06 14:35:00,77.9,28.1,29.61,SSW,202,4.6,4.6,16,0.00,CLR,,0.00,WeatherDisplay:10.37,2013-04-06 20:35:00,
2013-04-06 14:40:00,78.6,28.6,29.60,SE,135,7.4,7.4,16,0.00,CLR,,0.00,WeatherDisplay:10.37,2013-04-06 20:40:00,
2013-04-06 14:45:00,79.0,28.9,29.60,South,180,2.3,5.4,16,0.00,CLR,,0.00,WeatherDisplay:10.37,2013-04-06 20:45:00,
2013-04-06 14:50:00,79.0,27.4,29.60,SW,225,5.8,5.8,15,0.00,CLR,,0.00,WeatherDisplay:10.37,2013-04-06 20:50:00,
2013-04-06 14:55:00,78.8,27.2,29.59,North,0,2.4,2.4,15,0.00,CLR,,0.00,WeatherDisplay:10.37,2013-04-06 20:55:00,
2013-04-06 15:00:00,79.0,27.4,29.59,South,180,5.8,5.8,15,0.00,CLR,,0.00,WeatherDisplay:10.37,2013-04-06 21:00:00,
2013-04-06 15:05:00,79.3,27.6,29.59,SW,225,4.6,4.6,15,0.00,CLR,,0.00,WeatherDisplay:10.37,2013-04-06 21:05:00,
2013-04-06 15:10:00,78.8,27.2,29.59,WSW,248,3.5,3.5,15,0.00,CLR,,0.00,WeatherDisplay:10.37,2013-04-06 21:10:00,
2013-04-06 15:15:00,78.1,26.6,29.59,WNW,292,4.0,4.0,15,0.00,CLR,,0.00,WeatherDisplay:10.37,2013-04-06 21:15:00,
2013-04-06 15:20:00,78.1,26.6,29.58,West,270,4.6,4.6,15,0.00,CLR,,0.00,WeatherDisplay:10.37,2013-04-06 21:20:00,
2013-04-06 15:25:00,79.0,27.4,29.58,SW,225,5.8,5.8,15,0.00,CLR,,0.00,WeatherDisplay:10.37,2013-04-06 21:25:00,
2013-04-06 15:30:00,80.4,26.8,29.58,SE,135,8.1,8.1,14,0.00,CLR,,0.00,WeatherDisplay:10.37,2013-04-06 21:30:00,
2013-04-06 15:35:00,81.3,27.5,29.58,SSW,202,5.8,5.8,14,0.00,CLR,,0.00,WeatherDisplay:10.37,2013-04-06 21:35:00,
2013-04-06 15:40:00,81.5,25.9,29.58,South,180,3.5,3.5,13,0.00,CLR,,0.00,WeatherDisplay:10.37,2013-04-06 21:40:00,
2013-04-06 15:45:00,81.5,29.4,29.58,SE,135,1.2,1.2,15,0.00,CLR,,0.00,WeatherDisplay:10.37,2013-04-06 21:45:00,
2013-04-06 15:51:00,80.2,23.0,29.57,SSE,158,3.5,3.5,12,0.00,CLR,,0.00,WeatherDisplay:10.37,2013-04-06 21:51:00,
2013-04-06 15:56:00,79.2,24.0,29.57,NW,315,2.4,2.4,13,0.00,CLR,,0.00,WeatherDisplay:10.37,2013-04-06 21:56:00,
2013-04-06 16:01:00,78.8,23.8,29.56,SW,225,4.9,4.9,13,0.00,CLR,,0.00,WeatherDisplay:10.37,2013-04-06 22:01:00,
2013-04-06 16:06:00,78.8,23.8,29.56,SE,135,1.6,1.6,13,0.00,CLR,,0.00,WeatherDisplay:10.37,2013-04-06 22:06:00,
2013-04-06 16:11:00,79.2,24.0,29.56,SSW,202,1.4,1.4,13,0.00,CLR,,0.00,WeatherDisplay:10.37,2013-04-06 22:11:00,
2013-04-06 16:17:00,80.4,25.0,29.56,South,180,4.6,6.4,13,0.00,CLR,,0.00,WeatherDisplay:10.37,2013-04-06 22:17:00,
2013-04-06 16:22:00,81.0,25.5,29.55,West,270,2.9,2.9,13,0.00,CLR,,0.00,WeatherDisplay:10.37,2013-04-06 22:22:00,
2013-04-06 16:27:00,80.4,23.1,29.55,SW,225,5.9,5.9,12,0.00,CLR,,0.00,WeatherDisplay:10.37,2013-04-06 22:27:00,
2013-04-06 16:32:00,80.1,22.8,29.55,SSW,202,5.9,5.9,12,0.00,CLR,,0.00,WeatherDisplay:10.37,2013-04-06 22:32:00,
2013-04-06 16:38:00,79.9,22.7,29.55,SW,225,5.2,5.2,12,0.00,CLR,,0.00,WeatherDisplay:10.37,2013-04-06 22:38:00,
2013-04-06 16:43:00,80.2,23.0,29.55,South,180,5.9,5.9,12,0.00,CLR,,0.00,WeatherDisplay:10.37,2013-04-06 22:43:00,
2013-04-06 16:48:00,80.4,21.1,29.54,West,270,4.6,4.6,11,0.00,CLR,,0.00,WeatherDisplay:10.37,2013-04-06 22:48:00,
2013-04-06 16:53:00,79.5,20.4,29.54,WSW,248,2.3,2.3,11,0.00,CLR,,0.00,WeatherDisplay:10.37,2013-04-06 22:53:00,
2013-04-06 16:58:00,79.3,22.3,29.54,SW,225,2.3,2.3,12,0.00,CLR,,0.00,WeatherDisplay:10.37,2013-04-06 22:58:00,
2013-04-06 17:03:00,78.8,21.9,29.54,West,270,2.3,2.3,12,0.00,CLR,,0.00,WeatherDisplay:10.37,2013-04-06 23:03:00,
2013-04-06 17:08:00,79.0,19.9,29.54,WSW,248,6.2,6.2,11,0.00,CLR,,0.00,WeatherDisplay:10.37,2013-04-06 23:08:00,
2013-04-06 17:13:00,78.6,21.7,29.54,SW,225,4.6,4.6,12,0.00,CLR,,0.00,WeatherDisplay:10.37,2013-04-06 23:13:00,
2013-04-06 17:18:00,78.1,21.3,29.54,West,270,6.9,6.9,12,0.00,CLR,,0.00,WeatherDisplay:10.37,2013-04-06 23:18:00,
2013-04-06 17:23:00,77.9,19.1,29.53,West,270,1.2,1.2,11,0.00,CLR,,0.00,WeatherDisplay:10.37,2013-04-06 23:23:00,
2013-04-06 17:28:00,78.3,21.4,29.53,SSE,158,4.6,4.6,12,0.00,CLR,,0.00,WeatherDisplay:10.37,2013-04-06 23:28:00,
2013-04-06 17:33:00,78.8,19.8,29.53,SSW,202,8.1,8.5,11,0.00,CLR,,0.00,WeatherDisplay:10.37,2013-04-06 23:33:00,
2013-04-06 17:38:00,77.7,19.0,29.53,WSW,248,8.1,8.1,11,0.00,CLR,,0.00,WeatherDisplay:10.37,2013-04-06 23:38:00,
2013-04-06 17:43:00,77.5,18.8,29.53,West,270,2.3,2.3,11,0.00,CLR,,0.00,WeatherDisplay:10.37,2013-04-06 23:43:00,
2013-04-06 17:48:00,77.9,19.1,29.53,SW,225,10.4,10.4,11,0.00,CLR,,0.00,WeatherDisplay:10.37,2013-04-06 23:48:00,
2013-04-06 17:53:00,77.5,16.6,29.53,SSW,202,9.2,9.2,10,0.00,CLR,,0.00,WeatherDisplay:10.37,2013-04-06 23:53:00,
2013-04-06 17:58:00,77.4,18.7,29.52,West,270,3.5,3.5,11,0.00,CLR,,0.00,WeatherDisplay:10.37,2013-04-06 23:58:00,
2013-04-06 18:03:00,77.0,18.4,29.52,SW,225,2.3,2.3,11,0.00,CLR,,0.00,WeatherDisplay:10.37,2013-04-07 00:03:00,
2013-04-06 18:08:00,76.6,18.1,29.53,WSW,248,3.6,3.6,11,0.00,CLR,,0.00,WeatherDisplay:10.37,2013-04-07 00:08:00,
2013-04-06 18:13:00,76.3,19.9,29.53,SW,225,8.1,8.1,12,0.00,CLR,,0.00,WeatherDisplay:10.37,2013-04-07 00:13:00,
2013-04-06 18:18:00,75.7,19.5,29.53,SW,225,5.2,5.2,12,0.00,CLR,,0.00,WeatherDisplay:10.37,2013-04-07 00:18:00,
2013-04-06 18:23:00,75.6,19.3,29.52,SSW,202,3.8,3.8,12,0.00,CLR,,0.00,WeatherDisplay:10.37,2013-04-07 00:23:00,
2013-04-06 18:28:00,75.4,19.2,29.53,West,270,6.2,6.2,12,0.00,CLR,,0.00,WeatherDisplay:10.37,2013-04-07 00:28:00,
2013-04-06 18:33:00,75.4,19.2,29.52,SW,225,6.9,6.9,12,0.00,CLR,,0.00,WeatherDisplay:10.37,2013-04-07 00:33:00,
2013-04-06 18:38:00,75.6,19.3,29.52,SSW,202,6.7,6.7,12,0.00,CLR,,0.00,WeatherDisplay:10.37,2013-04-07 00:38:00,
2013-04-06 18:43:00,75.2,19.1,29.52,WSW,248,5.8,5.8,12,0.00,CLR,,0.00,WeatherDisplay:10.37,2013-04-07 00:43:00,
2013-04-06 18:48:00,74.7,18.6,29.52,SSW,202,8.1,8.1,12,0.00,CLR,,0.00,WeatherDisplay:10.37,2013-04-07 00:48:00,
2013-04-06 18:53:00,74.1,18.2,29.52,WSW,248,5.8,5.8,12,0.00,CLR,,0.00,WeatherDisplay:10.37,2013-04-07 00:53:00,
2013-04-06 18:58:00,73.8,17.9,29.52,WSW,248,11.5,11.5,12,0.00,CLR,,0.00,WeatherDisplay:10.37,2013-04-07 00:58:00,
2013-04-06 19:03:00,73.4,17.6,29.52,SW,225,9.2,9.2,12,0.00,CLR,,0.00,WeatherDisplay:10.37,2013-04-07 01:03:00,
2013-04-06 19:08:00,73.0,17.4,29.52,SW,225,9.2,9.2,12,0.00,CLR,,0.00,WeatherDisplay:10.37,2013-04-07 01:08:00,
2013-04-06 19:13:00,72.7,17.1,29.52,West,270,3.5,3.5,12,0.00,CLR,,0.00,WeatherDisplay:10.37,2013-04-07 01:13:00,
2013-04-06 19:18:00,72.1,18.5,29.52,WSW,248,5.8,5.8,13,0.00,CLR,,0.00,WeatherDisplay:10.37,2013-04-07 01:18:00,
2013-04-06 19:23:00,71.8,18.2,29.53,WSW,248,5.8,5.8,13,0.00,CLR,,0.00,WeatherDisplay:10.37,2013-04-07 01:23:00,
2013-04-06 19:29:00,71.6,18.1,29.53,SW,225,4.6,4.6,13,0.00,CLR,,0.00,WeatherDisplay:10.37,2013-04-07 01:29:00,
2013-04-06 19:34:00,71.2,17.8,29.53,WSW,248,2.3,2.3,13,0.00,CLR,,0.00,WeatherDisplay:10.37,2013-04-07 01:34:00,
2013-04-06 19:40:00,70.9,17.5,29.53,WSW,250,3.0,8.0,13,0.00,CLR,,0.00,WeatherDisplay:10.37,2013-04-07 01:40:00,
2013-04-06 19:45:00,70.7,17.4,29.53,SW,225,5.2,5.2,13,0.00,CLR,,0.00,WeatherDisplay:10.37,2013-04-07 01:45:00,
2013-04-06 19:50:00,70.5,17.2,29.53,SSW,202,5.8,5.8,13,0.00,CLR,,0.00,WeatherDisplay:10.37,2013-04-07 01:50:00,
2013-04-06 19:55:00,70.2,17.0,29.53,SW,225,5.2,5.2,13,0.00,CLR,,0.00,WeatherDisplay:10.37,2013-04-07 01:55:00,
2013-04-06 20:00:00,69.8,16.7,29.53,SW,225,4.6,4.6,13,0.00,CLR,,0.00,WeatherDisplay:10.37,2013-04-07 02:00:00,
2013-04-06 20:05:00,69.6,16.5,29.53,WSW,248,5.8,5.8,13,0.00,CLR,,0.00,WeatherDisplay:10.37,2013-04-07 02:05:00,
2013-04-06 20:10:00,69.4,16.4,29.53,SW,225,3.5,3.5,13,0.00,CLR,,0.00,WeatherDisplay:10.37,2013-04-07 02:10:00,
2013-04-06 20:15:00,69.4,16.4,29.53,West,270,2.3,3.3,13,0.00,CLR,,0.00,WeatherDisplay:10.37,2013-04-07 02:15:00,
2013-04-06 20:20:00,69.4,16.4,29.53,SW,225,2.6,2.6,13,0.00,CLR,,0.00,WeatherDisplay:10.37,2013-04-07 02:20:00,
2013-04-06 20:25:00,69.3,16.3,29.54,SSE,158,3.3,3.3,13,0.00,CLR,,0.00,WeatherDisplay:10.37,2013-04-07 02:25:00,
2013-04-06 20:30:00,69.1,16.1,29.54,WSW,248,5.8,5.8,13,0.00,CLR,,0.00,WeatherDisplay:10.37,2013-04-07 02:30:00,
2013-04-06 20:35:00,69.1,16.1,29.54,SW,225,2.3,2.3,13,0.00,CLR,,0.00,WeatherDisplay:10.37,2013-04-07 02:35:00,
2013-04-06 20:40:00,68.9,16.0,29.54,West,270,2.3,2.3,13,0.00,CLR,,0.00,WeatherDisplay:10.37,2013-04-07 02:40:00,
2013-04-06 20:45:00,68.7,19.1,29.54,West,270,4.6,4.7,15,0.00,CLR,,0.00,WeatherDisplay:10.37,2013-04-07 02:45:00,
2013-04-06 20:50:00,68.7,19.1,29.54,WSW,248,2.3,2.3,15,0.00,CLR,,0.00,WeatherDisplay:10.37,2013-04-07 02:50:00,
2013-04-06 20:55:00,68.5,19.0,29.54,West,270,2.6,2.6,15,0.00,CLR,,0.00,WeatherDisplay:10.37,2013-04-07 02:55:00,
2013-04-06 21:00:00,68.4,18.9,29.54,West,270,4.0,4.0,15,0.00,CLR,,0.00,WeatherDisplay:10.37,2013-04-07 03:00:00,
2013-04-06 21:05:00,68.2,18.7,29.55,West,270,3.5,3.5,15,0.00,CLR,,0.00,WeatherDisplay:10.37,2013-04-07 03:05:00,
2013-04-06 21:10:00,68.0,18.6,29.55,West,270,2.3,2.3,15,0.00,CLR,,0.00,WeatherDisplay:10.37,2013-04-07 03:10:00,
2013-04-06 21:15:00,67.8,19.9,29.54,WSW,248,2.3,2.3,16,0.00,CLR,,0.00,WeatherDisplay:10.37,2013-04-07 03:15:00,
2013-04-06 21:20:00,67.6,19.8,29.54,WSW,248,2.3,2.3,16,0.00,CLR,,0.00,WeatherDisplay:10.37,2013-04-07 03:20:00,
2013-04-06 21:25:00,67.5,19.6,29.55,WNW,292,1.4,1.4,16,0.00,CLR,,0.00,WeatherDisplay:10.37,2013-04-07 03:25:00,
2013-04-06 21:31:00,67.3,19.5,29.55,NW,315,2.3,2.3,16,0.00,CLR,,0.00,WeatherDisplay:10.37,2013-04-07 03:31:00,
2013-04-06 21:36:00,67.3,19.5,29.55,WNW,292,2.3,2.3,16,0.00,CLR,,0.00,WeatherDisplay:10.37,2013-04-07 03:36:00,
2013-04-06 21:41:00,67.1,19.4,29.55,WNW,292,5.8,5.8,16,0.00,CLR,,0.00,WeatherDisplay:10.37,2013-04-07 03:41:00,
2013-04-06 21:46:00,66.9,19.2,29.55,WNW,292,1.2,1.2,16,0.00,CLR,,0.00,WeatherDisplay:10.37,2013-04-07 03:46:00,
2013-04-06 21:51:00,66.7,19.1,29.56,WNW,292,1.4,1.4,16,0.00,CLR,,0.00,WeatherDisplay:10.37,2013-04-07 03:51:00,
2013-04-06 21:56:00,66.6,18.9,29.56,WNW,292,1.2,1.2,16,0.00,CLR,,0.00,WeatherDisplay:10.37,2013-04-07 03:56:00,
2013-04-06 22:00:00,66.5,18.8,29.56,WSW,252,1.0,1.0,16,0.00,CLR,,0.00,WeatherDisplay:10.37,2013-04-07 04:00:00,
2013-04-06 22:01:00,66.4,20.2,29.56,West,270,0.0,0.0,17,0.00,CLR,,0.00,WeatherDisplay:10.37,2013-04-07 04:01:00,
2013-04-06 22:02:00,66.4,18.8,29.56,West,270,2.3,2.3,16,0.00,CLR,,0.00,WeatherDisplay:10.37,2013-04-07 04:02:00,
2013-04-06 22:07:00,66.2,18.6,29.56,West,270,0.0,0.0,16,0.00,CLR,,0.00,WeatherDisplay:10.37,2013-04-07 04:07:00,
2013-04-06 22:12:00,66.0,18.5,29.56,SSW,202,0.0,0.0,16,0.00,CLR,,0.00,WeatherDisplay:10.37,2013-04-07 04:12:00,
2013-04-06 22:17:00,65.5,19.5,29.56,SSW,202,2.3,2.3,17,0.00,CLR,,0.00,WeatherDisplay:10.37,2013-04-07 04:17:00,
2013-04-06 22:22:00,65.3,19.3,29.56,West,270,1.2,1.2,17,0.00,CLR,,0.00,WeatherDisplay:10.37,2013-04-07 04:22:00,
2013-04-06 22:27:00,64.8,18.9,29.56,SW,225,2.3,2.3,17,0.00,CLR,,0.00,WeatherDisplay:10.37,2013-04-07 04:27:00,
2013-04-06 22:32:00,64.6,18.7,29.56,WSW,248,0.0,0.0,17,0.00,CLR,,0.00,WeatherDisplay:10.37,2013-04-07 04:32:00,
2013-04-06 22:37:00,64.4,18.6,29.57,WSW,248,0.0,0.0,17,0.00,CLR,,0.00,WeatherDisplay:10.37,2013-04-07 04:37:00,
2013-04-06 22:42:00,64.0,18.3,29.57,WSW,248,0.0,0.0,17,0.00,CLR,,0.00,WeatherDisplay:10.37,2013-04-07 04:42:00,
2013-04-06 22:47:00,63.7,19.3,29.57,WSW,248,0.0,0.0,18,0.00,CLR,,0.00,WeatherDisplay:10.37,2013-04-07 04:47:00,
2013-04-06 22:52:00,63.3,19.0,29.57,SSE,158,0.0,0.2,18,0.00,CLR,,0.00,WeatherDisplay:10.37,2013-04-07 04:52:00,
2013-04-06 22:57:00,63.0,18.7,29.57,SSE,158,0.0,0.0,18,0.00,CLR,,0.00,WeatherDisplay:10.37,2013-04-07 04:57:00,
2013-04-06 23:02:00,62.6,19.7,29.57,SSE,158,0.7,0.7,19,0.00,CLR,,0.00,WeatherDisplay:10.37,2013-04-07 05:02:00,
2013-04-06 23:07:00,62.2,19.4,29.57,SE,135,0.0,0.0,19,0.00,CLR,,0.00,WeatherDisplay:10.37,2013-04-07 05:07:00,
2013-04-06 23:12:00,62.2,19.4,29.57,NNE,22,0.0,0.0,19,0.00,CLR,,0.00,WeatherDisplay:10.37,2013-04-07 05:12:00,
2013-04-06 23:17:00,61.9,19.1,29.56,North,0,0.2,0.2,19,0.00,CLR,,0.00,WeatherDisplay:10.37,2013-04-07 05:17:00,
2013-04-06 23:22:00,61.9,19.1,29.56,SSW,202,1.2,0.0,19,0.00,CLR,,0.00,WeatherDisplay:10.37,2013-04-07 05:22:00,
2013-04-06 23:27:00,61.9,19.1,29.56,SSE,158,0.0,0.0,19,0.00,CLR,,0.00,WeatherDisplay:10.37,2013-04-07 05:27:00,
2013-04-06 23:33:00,61.7,19.0,29.56,SSE,158,0.0,0.0,19,0.00,CLR,,0.00,WeatherDisplay:10.37,2013-04-07 05:33:00,
2013-04-06 23:38:00,61.5,21.2,29.56,SSE,158,0.0,0.0,21,0.00,CLR,,0.00,WeatherDisplay:10.37,2013-04-07 05:38:00,
2013-04-06 23:43:00,61.3,21.0,29.57,SSE,158,0.0,0.0,21,0.00,CLR,,0.00,WeatherDisplay:10.37,2013-04-07 05:43:00,
2013-04-06 23:48:00,61.2,20.9,29.56,NE,45,0.0,0.0,21,0.00,CLR,,0.00,WeatherDisplay:10.37,2013-04-07 05:48:00,
2013-04-06 23:53:00,61.2,20.9,29.57,West,270,0.0,0.0,21,0.00,CLR,,0.00,WeatherDisplay:10.37,2013-04-07 05:53:00,
2013-04-06 23:58:00,61.3,21.0,29.57,SSE,158,0.0,0.0,21,0.00,CLR,,0.00,WeatherDisplay:10.37,2013-04-07 05:58:00,